Location: Unspecified
(0.0000°N, 0.0000°E)
Time: 20:18:20
(UTC+00:00)

Daily predictions for brighter satellites

Satellite Brightness Start Highest point End
(mag) Time Altitude Azimuth Time Altitude Azimuth Time Altitude Azimuth
Milstar 3 4.1 17:57:15 10° WSW 18:14:54 87° SSE 18:23:43 10° ENE
Cosmos 2233 Rocket 4.3 18:12:01 10° N 18:18:08 77° W 18:24:17 10° S
Cosmos 192 4.5 18:14:23 10° N 18:19:13 57° ENE 18:24:05 10° SSE
ARIANE 5 R/B 3.7 18:15:02 10° WNW 18:19:33 66° N 18:54:33 12° E
ARIANE 5 R/B 3.7 18:15:03 10° WNW 18:19:34 66° N 18:54:34 12° E
ARIANE 5 R/B 3.7 18:15:02 10° WNW 18:19:34 66° N 18:54:35 12° E
CZ-4 R/B 1.7 18:19:41 10° SSE 18:23:47 50° ENE 18:27:49 10° N
Spelda 3.3 18:23:56 10° W 18:27:10 60° N 18:29:22 10° ENE
NOSS 2-3 (D) 4.0 18:23:25 10° S 18:27:54 41° ESE 18:31:58 10° NE
Cosmos 1844 4.3 18:24:03 10° NNW 18:29:31 62° WSW 18:34:59 10° S
ISS -1.8 18:27:12 10° WNW 18:30:05 28° SW 18:32:58 10° S
NOSS 2-3 (E) 3.8 18:25:32 10° S 18:30:10 50° ESE 18:34:21 10° NE
Envisat 3.7 18:26:06 10° SE 18:30:38 33° ENE 18:35:08 10° NNE
Meteor 2-1 Rocket 4.5 18:25:32 10° S 18:31:17 52° E 18:36:59 10° NNE
Cosmos 2278 Rocket 2.9 18:26:35 10° NNE 18:31:32 32° ENE 18:36:29 10° SE
ARIANE 5 R/B 0.7 18:31:45 10° W 18:33:56 60° S 18:35:45 13° E
Cosmos 540 Rocket 3.9 18:32:27 10° NNW 18:37:32 65° WSW 18:42:36 10° S
Cosmos 1464 Rocket 4.2 18:32:31 10° NNE 18:38:38 52° E 18:44:48 10° SSE
YAOGAN 1 2.6 18:36:15 10° SSE 18:40:31 58° ENE 18:44:45 10° N
SWIFT 2.4 18:36:42 10° WSW 18:40:55 78° NNW 18:45:06 10° ENE
Cosmos 1076 Rocket 4.4 18:40:59 10° NNE 18:44:33 26° E 18:48:07 10° SE
BLOCK DM-SL R/B 4.1 18:40:45 10° WSW 18:44:59 58° S 18:55:10 16° E
Tiangong 2 3.0 18:43:16 10° N 18:45:16 16° NE 18:46:12 14° ENE
Ariane H10+ 2.6 18:42:47 10° W 18:45:35 40° N 18:47:47 13° ENE
Cosmos 1184 Rocket 2.8 18:42:40 10° S 18:45:56 59° E 18:49:10 10° NNE
Cosmos 1900 4.4 18:41:57 10° SSW 18:46:53 86° WNW 18:51:54 10° NNE
Cosmos 1300 2.6 18:43:09 10° S 18:46:57 69° E 18:50:44 10° N
Cosmos 1437 Rocket 2.7 18:45:47 10° N 18:49:48 77° E 18:53:48 10° S
Cosmos 1072 Rocket 4.5 18:44:07 10° N 18:50:30 79° E 18:56:51 10° S
ATLAS 5 CENTAUR R/B 4.3 18:42:25 10° SW 18:50:30 46° SSE 19:18:20 17° E
ARIANE 5 DEB (SYLDA) 2.8 18:49:55 10° WNW 18:53:15 60° N 18:56:29 18° E
Cosmos 2034 Rocket 4.2 18:47:30 10° NNE 18:53:23 47° E 18:59:16 10° SSE
COSMOS 2455 2.8 18:51:35 10° SSW 18:57:33 70° ESE 19:03:30 10° NNE
Cosmos 1898 Rocket 4.0 18:57:45 10° SSE 19:02:29 35° ESE 19:07:10 10° NE
Palapa 6 Rocket 3.3 19:00:12 10° WSW 19:04:58 79° SSE 19:08:40 23° ENE
Cosmos 1513 Rocket 4.4 18:59:48 10° N 19:05:51 87° W 19:11:59 10° S
ARIANE 5 DEB (SYLDA) 4.1 19:02:35 10° W 19:07:05 78° S 19:18:47 23° E
Ariane Rocket 2.9 19:05:35 10° SSE 19:10:40 81° ENE 19:15:44 10° N
deb Ariane 3.4 19:04:37 10° WNW 19:13:17 58° N 19:14:25 36° ENE
OAO 2 Rocket 4.1 19:11:05 10° SSW 19:15:33 32° SE 19:15:57 31° SE
Cosmos 1939 Rocket 4.0 19:24:35 31° NE 19:24:35 31° NE 19:27:07 10° N
Ariane H10+ 2.8 19:24:16 10° W 19:24:53 17° W 19:24:53 17° W
COBE Rocket 3.9 19:30:01 10° N 19:34:39 74° W 19:39:26 10° SSW
Milstar 3 Cent rocket 3.3 19:33:03 10° SW 19:40:02 32° SSE 19:40:02 32° SSE
MOS 1 4.1 19:38:05 36° SSE 19:40:32 81° ENE 19:46:13 10° N
CZ-2D R/B 3.6 19:41:03 62° WSW 19:41:04 62° W 19:44:54 10° NNW
GPS 2-18 Rocket1 4.3 19:39:24 10° W 19:42:25 36° NW 19:42:25 36° NW
Aurora 2 Rocket 4.1 19:39:10 10° NW 19:42:40 25° N 19:42:40 25° N
Cosmos 858 Rocket 4.3 19:40:06 10° S 19:45:23 85° E 19:50:37 10° NNE
Cosmos 1937 Rocket 3.7 19:40:10 10° S 19:50:54 - NNE 19:44:23 56° S
Ariane H10+ 2.8 19:45:32 10° WSW 19:48:28 47° SW 19:48:28 47° SW
FALCON 9 R/B 2.6 19:34:56 10° WNW 19:54:36 57° NNE 19:55:20 54° NE
Cosmos 2058 4.5 19:51:28 10° NNW 19:53:33 28° NNW 19:53:33 28° NNW
Cosmos 990 Rocket 4.4 19:51:35 10° SSW 19:56:41 60° WNW 20:01:43 10° N
MAQSAT/ARIANE V 3.3 19:56:27 10° WSW 19:58:42 44° SSW 19:58:42 44° SSW
Cosmos 2297 4.4 19:58:03 10° N 20:01:45 43° N 20:01:45 43° N
Lacrosse 5 2.8 20:02:37 10° SW 20:06:24 44° WSW 20:06:24 44° WSW
GOES 2 Rocket 4.3 20:06:34 10° WNW 20:11:38 59° SW 20:11:38 59° SW
ARIANE 5 R/B 4.4 20:09:49 10° WSW 20:10:28 17° WSW 20:10:28 17° WSW
ARIANE 5 R/B 4.0 20:46:32 10° WNW 21:33:14 15° E 22:03:33 10° E
ARIANE 5 R/B 4.0 20:46:32 10° WNW 21:33:14 15° E 22:03:34 10° E
ARIANE 5 R/B 4.0 20:46:32 10° WNW 21:33:13 15° E 22:03:33 10° E
ARIANE 5 R/B 4.0 20:46:33 10° WNW 21:33:14 15° E 22:03:33 10° E
